カタログに戻る

STARLINK-4787

運用中通信VLEO
NORAD 53904·PAYLOAD·🇺🇸 United States

打ち上げ Sep 24, 2022 から Cape Canaveral Space Force Station

Loading…

次のパス (今後24時間)

TLE

最新Source: CelesTrak SupGP

元期: Sep 14, 2026, 21:22 UTC

1 53904C 22119U   26257.89076389 -.00017773  00000+0 -52550-3 0  2571
2 53904  53.1592 182.0211 0001202  91.1064 146.4039 15.34375466    11

AllMySatでSTARLINK-4787をリアルタイム追跡

Download on the App Store